{"data":{"norad_id":40059,"epoch":"2026-09-20T02:59:57.540192Z","epoch_age_seconds":46849,"freshness":"FRESH","line1":"1 40059U 14035A   26263.12497153  .00000229  00000+0  60959-4 0  9997","line2":"2 40059  98.2074 202.9930 0001611  75.6220 284.5157 14.57092570649872","mean_motion":14.5709257,"eccentricity":0.0001611,"inclination_deg":98.2074,"raan_deg":202.993,"arg_perigee_deg":75.622,"mean_anomaly_deg":284.5157,"bstar":6.0959e-5,"rev_number":64987,"period_min":98.826940006976,"perigee_km":701.43671944813,"apogee_km":703.71812563507,"semimajor_km":7080.7144225416,"source":"CELESTRAK","updated_at":"2026-09-20T09:00:47.147883Z"}}